Time,TemperatureF,DewpointF,PressureIn,WindDirection,WindDirectionDegrees,WindSpeedMPH,WindSpeedGustMPH,Humidity,HourlyPrecipIn,Conditions,Clouds,dailyrainin,SoftwareType,DateUTC
2013-10-25 00:10:00,48.2,47.7,30.18,SSE,151,0.0,0.0,98,0.00,,,0.00,Wunderground v.1.15,2013-10-25 07:10:00,
2013-10-25 00:20:00,48.3,47.8,30.18,SSE,151,0.0,0.0,98,0.00,,,0.00,Wunderground v.1.15,2013-10-25 07:20:00,
2013-10-25 00:25:00,48.3,47.8,30.18,NNE,20,0.0,0.0,98,0.00,,,0.00,Wunderground v.1.15,2013-10-25 07:25:00,
2013-10-25 00:35:00,48.3,47.8,30.19,NNE,20,0.0,0.0,98,0.00,,,0.00,Wunderground v.1.15,2013-10-25 07:35:00,
2013-10-25 00:40:00,48.3,47.8,30.19,NNE,20,0.0,0.0,98,0.00,,,0.00,Wunderground v.1.15,2013-10-25 07:40:00,
2013-10-25 00:50:00,48.2,47.7,30.19,NNE,20,0.0,0.0,98,0.00,,,0.00,Wunderground v.1.15,2013-10-25 07:50:00,
2013-10-25 00:55:00,48.2,47.7,30.19,NE,52,0.0,0.0,98,0.00,,,0.00,Wunderground v.1.15,2013-10-25 07:55:00,
2013-10-25 01:06:00,48.0,47.5,30.20,East,88,0.0,1.0,98,0.00,,,0.00,Wunderground v.1.15,2013-10-25 08:06:00,
2013-10-25 01:15:00,47.9,47.1,30.20,East,88,0.0,1.0,97,0.00,,,0.00,Wunderground v.1.15,2013-10-25 08:15:00,
2013-10-25 01:20:00,47.9,47.1,30.20,East,88,0.0,1.0,97,0.00,,,0.00,Wunderground v.1.15,2013-10-25 08:20:00,
2013-10-25 01:30:00,47.7,47.2,30.20,East,88,0.0,0.0,98,0.00,,,0.00,Wunderground v.1.15,2013-10-25 08:30:00,
2013-10-25 01:40:00,47.6,47.1,30.20,South,178,0.0,0.0,98,0.00,,,0.00,Wunderground v.1.15,2013-10-25 08:40:00,
2013-10-25 01:50:00,47.6,47.1,30.20,South,179,0.0,0.0,98,0.00,,,0.00,Wunderground v.1.15,2013-10-25 08:50:00,
2013-10-25 01:55:00,47.6,47.1,30.20,South,179,0.0,0.0,98,0.00,,,0.00,Wunderground v.1.15,2013-10-25 08:55:00,
2013-10-25 02:06:00,47.3,46.8,30.21,South,179,0.0,0.0,98,0.00,,,0.00,Wunderground v.1.15,2013-10-25 09:06:00,
2013-10-25 02:15:00,47.3,46.8,30.21,South,179,0.0,0.0,98,0.00,,,0.00,Wunderground v.1.15,2013-10-25 09:15:00,
2013-10-25 02:20:00,47.3,46.8,30.21,South,179,0.0,0.0,98,0.00,,,0.00,Wunderground v.1.15,2013-10-25 09:20:00,
2013-10-25 02:30:00,47.3,46.8,30.21,South,179,0.0,0.0,98,0.00,,,0.00,Wunderground v.1.15,2013-10-25 09:30:00,
2013-10-25 02:35:00,47.3,46.8,30.22,South,179,0.0,0.0,98,0.00,,,0.00,Wunderground v.1.15,2013-10-25 09:35:00,
2013-10-25 02:45:00,47.1,46.6,30.22,South,179,0.0,0.0,98,0.00,,,0.00,Wunderground v.1.15,2013-10-25 09:45:00,
2013-10-25 02:55:00,47.1,46.6,30.22,South,179,0.0,0.0,98,0.00,,,0.00,Wunderground v.1.15,2013-10-25 09:55:00,
2013-10-25 03:06:00,47.1,46.6,30.23,South,179,0.0,0.0,98,0.00,,,0.00,Wunderground v.1.15,2013-10-25 10:06:00,
2013-10-25 03:15:00,47.1,46.6,30.23,South,179,0.0,0.0,98,0.00,,,0.00,Wunderground v.1.15,2013-10-25 10:15:00,
2013-10-25 03:20:00,47.1,46.6,30.22,South,179,0.0,0.0,98,0.00,,,0.00,Wunderground v.1.15,2013-10-25 10:20:00,
2013-10-25 03:30:00,47.1,46.6,30.22,South,179,0.0,0.0,98,0.00,,,0.00,Wunderground v.1.15,2013-10-25 10:30:00,
2013-10-25 03:40:00,47.3,46.8,30.23,South,179,0.0,0.0,98,0.00,,,0.00,Wunderground v.1.15,2013-10-25 10:40:00,
2013-10-25 03:50:00,47.3,46.8,30.23,South,179,0.0,0.0,98,0.00,,,0.00,Wunderground v.1.15,2013-10-25 10:50:00,
2013-10-25 03:55:00,47.4,46.9,30.23,South,179,0.0,0.0,98,0.00,,,0.00,Wunderground v.1.15,2013-10-25 10:55:00,
2013-10-25 04:06:00,47.4,46.9,30.23,South,179,0.0,0.0,98,0.00,,,0.00,Wunderground v.1.15,2013-10-25 11:06:00,
2013-10-25 04:15:00,47.4,46.9,30.23,South,179,0.0,0.0,98,0.00,,,0.00,Wunderground v.1.15,2013-10-25 11:15:00,
2013-10-25 04:20:00,47.4,46.9,30.23,South,179,0.0,0.0,98,0.00,,,0.00,Wunderground v.1.15,2013-10-25 11:20:00,
2013-10-25 04:30:00,47.4,47.1,30.23,South,179,0.0,0.0,99,0.00,,,0.00,Wunderground v.1.15,2013-10-25 11:30:00,
2013-10-25 04:40:00,47.4,47.1,30.24,South,179,0.0,0.0,99,0.00,,,0.00,Wunderground v.1.15,2013-10-25 11:40:00,
2013-10-25 04:50:00,47.4,46.9,30.24,South,179,0.0,0.0,98,0.00,,,0.00,Wunderground v.1.15,2013-10-25 11:50:00,
2013-10-25 04:55:00,47.4,46.9,30.24,South,179,0.0,0.0,98,0.00,,,0.00,Wunderground v.1.15,2013-10-25 11:55:00,
2013-10-25 05:06:00,47.4,47.1,30.24,South,179,0.0,0.0,99,0.00,,,0.00,Wunderground v.1.15,2013-10-25 12:06:00,
2013-10-25 05:15:00,47.4,47.1,30.24,South,179,0.0,0.0,99,0.00,,,0.00,Wunderground v.1.15,2013-10-25 12:15:00,
2013-10-25 05:20:00,47.4,46.9,30.25,South,179,0.0,0.0,98,0.00,,,0.00,Wunderground v.1.15,2013-10-25 12:20:00,
2013-10-25 05:30:00,47.4,46.9,30.25,South,179,0.0,0.0,98,0.00,,,0.00,Wunderground v.1.15,2013-10-25 12:30:00,
2013-10-25 05:40:00,47.4,47.1,30.25,South,179,0.0,0.0,99,0.00,,,0.01,Wunderground v.1.15,2013-10-25 12:40:00,
2013-10-25 05:50:00,47.6,47.3,30.25,South,179,0.0,0.0,99,0.00,,,0.01,Wunderground v.1.15,2013-10-25 12:50:00,
2013-10-25 05:55:00,47.6,47.3,30.25,South,179,0.0,0.0,99,0.00,,,0.01,Wunderground v.1.15,2013-10-25 12:55:00,
2013-10-25 06:06:00,47.6,47.3,30.25,South,179,0.0,0.0,99,0.00,,,0.01,Wunderground v.1.15,2013-10-25 13:06:00,
2013-10-25 06:15:00,47.6,47.3,30.25,South,179,0.0,0.0,99,0.00,,,0.01,Wunderground v.1.15,2013-10-25 13:15:00,
2013-10-25 06:25:00,47.6,47.3,30.25,South,179,0.0,0.0,99,0.00,,,0.01,Wunderground v.1.15,2013-10-25 13:25:00,
2013-10-25 06:35:00,47.6,47.3,30.26,South,179,0.0,0.0,99,0.00,,,0.01,Wunderground v.1.15,2013-10-25 13:35:00,
2013-10-25 06:45:00,47.6,47.3,30.26,South,179,0.0,0.0,99,0.00,,,0.01,Wunderground v.1.15,2013-10-25 13:45:00,
2013-10-25 06:50:00,47.6,47.3,30.26,South,179,0.0,0.0,99,0.00,,,0.01,Wunderground v.1.15,2013-10-25 13:50:00,
2013-10-25 07:00:00,47.7,47.4,30.26,South,179,0.0,0.0,99,0.00,,,0.01,Wunderground v.1.15,2013-10-25 14:00:00,
2013-10-25 07:06:00,47.7,47.4,30.26,South,179,0.0,0.0,99,0.00,,,0.01,Wunderground v.1.15,2013-10-25 14:06:00,
2013-10-25 07:15:00,47.7,47.4,30.26,South,179,0.0,0.0,99,0.00,,,0.01,Wunderground v.1.15,2013-10-25 14:15:00,
2013-10-25 07:20:00,47.7,47.4,30.27,South,179,0.0,0.0,99,0.00,,,0.01,Wunderground v.1.15,2013-10-25 14:20:00,
2013-10-25 07:30:00,47.7,47.4,30.27,South,179,0.0,0.0,99,0.00,,,0.01,Wunderground v.1.15,2013-10-25 14:30:00,
2013-10-25 07:35:00,47.7,47.4,30.27,South,179,0.0,0.0,99,0.00,,,0.01,Wunderground v.1.15,2013-10-25 14:35:00,
2013-10-25 07:45:00,47.7,47.4,30.27,South,179,0.0,0.0,99,0.00,,,0.01,Wunderground v.1.15,2013-10-25 14:45:00,
2013-10-25 07:50:00,47.7,47.4,30.27,South,179,0.0,0.0,99,0.00,,,0.01,Wunderground v.1.15,2013-10-25 14:50:00,
2013-10-25 08:00:00,47.7,47.4,30.27,South,179,0.0,0.0,99,0.00,,,0.01,Wunderground v.1.15,2013-10-25 15:00:00,
2013-10-25 08:06:00,47.6,47.3,30.28,South,179,0.0,0.0,99,0.00,,,0.01,Wunderground v.1.15,2013-10-25 15:06:00,
2013-10-25 08:15:00,47.6,47.3,30.28,South,179,0.0,0.0,99,0.00,,,0.01,Wunderground v.1.15,2013-10-25 15:15:00,
2013-10-25 08:20:00,47.6,47.3,30.29,South,179,0.0,0.0,99,0.00,,,0.01,Wunderground v.1.15,2013-10-25 15:20:00,
2013-10-25 08:30:00,47.6,47.3,30.29,SSE,168,0.0,0.0,99,0.00,,,0.01,Wunderground v.1.15,2013-10-25 15:30:00,
2013-10-25 08:35:00,47.6,47.1,30.30,SSE,168,0.0,0.0,98,0.00,,,0.01,Wunderground v.1.15,2013-10-25 15:35:00,
2013-10-25 08:45:00,47.4,47.1,30.30,South,169,0.0,0.0,99,0.00,,,0.01,Wunderground v.1.15,2013-10-25 15:45:00,
2013-10-25 08:55:00,47.4,46.9,30.30,SE,143,0.0,0.0,98,0.00,,,0.01,Wunderground v.1.15,2013-10-25 15:55:00,
2013-10-25 09:10:00,47.3,46.8,30.30,SE,141,1.0,1.0,98,0.00,,,0.01,Wunderground v.1.15,2013-10-25 16:10:00,
2013-10-25 09:20:00,47.4,46.9,30.31,SE,141,0.0,0.0,98,0.00,,,0.01,Wunderground v.1.15,2013-10-25 16:20:00,
2013-10-25 09:25:00,47.4,46.9,30.31,SE,141,0.0,0.0,98,0.00,,,0.01,Wunderground v.1.15,2013-10-25 16:25:00,
2013-10-25 09:35:00,47.6,47.1,30.31,NE,44,0.0,0.0,98,0.00,,,0.01,Wunderground v.1.15,2013-10-25 16:35:00,
2013-10-25 09:45:00,47.6,47.1,30.31,East,89,0.0,1.0,98,0.00,,,0.01,Wunderground v.1.15,2013-10-25 16:45:00,
2013-10-25 09:55:00,47.6,47.1,30.31,SSE,147,1.0,1.0,98,0.00,,,0.01,Wunderground v.1.15,2013-10-25 16:55:00,
2013-10-25 10:00:00,47.6,47.1,30.31,SSE,147,0.0,0.0,98,0.00,,,0.01,Wunderground v.1.15,2013-10-25 17:00:00,
2013-10-25 10:10:00,47.9,47.4,30.32,NNE,30,0.0,0.0,98,0.00,,,0.01,Wunderground v.1.15,2013-10-25 17:10:00,
2013-10-25 10:20:00,48.0,47.5,30.32,NNE,31,0.0,0.0,98,0.00,,,0.01,Wunderground v.1.15,2013-10-25 17:20:00,
2013-10-25 10:25:00,47.9,47.4,30.32,North,0,0.0,0.0,98,0.00,,,0.01,Wunderground v.1.15,2013-10-25 17:25:00,
2013-10-25 10:35:00,48.2,47.4,30.33,NW,305,0.0,2.0,97,0.00,,,0.01,Wunderground v.1.15,2013-10-25 17:35:00,
2013-10-25 10:40:00,48.0,47.2,30.33,NW,305,0.0,0.0,97,0.00,,,0.01,Wunderground v.1.15,2013-10-25 17:40:00,
2013-10-25 10:50:00,48.0,46.6,30.33,ESE,110,0.0,0.0,95,0.00,,,0.01,Wunderground v.1.15,2013-10-25 17:50:00,
2013-10-25 11:00:00,48.2,46.8,30.33,ESE,110,0.0,0.0,95,0.00,,,0.01,Wunderground v.1.15,2013-10-25 18:00:00,
2013-10-25 11:10:00,48.5,46.9,30.33,ESE,110,0.0,0.0,94,0.00,,,0.01,Wunderground v.1.15,2013-10-25 18:10:00,
2013-10-25 11:20:00,48.8,47.4,30.33,ESE,110,0.0,0.0,95,0.00,,,0.01,Wunderground v.1.15,2013-10-25 18:20:00,
2013-10-25 11:30:00,48.9,47.2,30.33,ESE,109,0.0,0.0,94,0.00,,,0.01,Wunderground v.1.15,2013-10-25 18:30:00,
2013-10-25 11:36:00,48.9,47.2,30.34,ESE,107,0.0,1.0,94,0.00,,,0.01,Wunderground v.1.15,2013-10-25 18:36:00,
2013-10-25 11:45:00,49.1,47.2,30.34,NNE,17,0.0,0.0,93,0.00,,,0.01,Wunderground v.1.15,2013-10-25 18:45:00,
2013-10-25 11:50:00,49.2,47.3,30.34,NNE,17,0.0,0.0,93,0.00,,,0.01,Wunderground v.1.15,2013-10-25 18:50:00,
2013-10-25 12:00:00,49.4,47.2,30.34,NNE,17,0.0,0.0,92,0.00,,,0.01,Wunderground v.1.15,2013-10-25 19:00:00,
2013-10-25 12:06:00,49.5,47.6,30.34,NNE,17,0.0,0.0,93,0.00,,,0.01,Wunderground v.1.15,2013-10-25 19:06:00,
2013-10-25 12:15:00,49.6,47.4,30.34,NNE,17,0.0,0.0,92,0.00,,,0.01,Wunderground v.1.15,2013-10-25 19:15:00,
2013-10-25 12:20:00,49.6,47.1,30.34,NNE,17,0.0,0.0,91,0.00,,,0.01,Wunderground v.1.15,2013-10-25 19:20:00,
2013-10-25 12:30:00,49.9,47.4,30.34,NNE,16,1.0,1.0,91,0.00,,,0.01,Wunderground v.1.15,2013-10-25 19:30:00,
2013-10-25 12:35:00,50.1,47.6,30.34,NNE,16,0.0,1.0,91,0.00,,,0.01,Wunderground v.1.15,2013-10-25 19:35:00,
2013-10-25 12:45:00,50.1,47.6,30.34,NNE,16,0.0,0.0,91,0.00,,,0.01,Wunderground v.1.15,2013-10-25 19:45:00,
2013-10-25 12:50:00,50.1,47.3,30.34,NNE,16,0.0,1.0,90,0.00,,,0.01,Wunderground v.1.15,2013-10-25 19:50:00,
2013-10-25 13:00:00,50.2,47.7,30.34,WSW,248,1.0,1.0,91,0.00,,,0.01,Wunderground v.1.15,2013-10-25 20:00:00,
2013-10-25 13:10:00,50.2,47.4,30.34,WSW,248,0.0,0.0,90,0.00,,,0.01,Wunderground v.1.15,2013-10-25 20:10:00,
2013-10-25 13:20:00,50.5,48.3,30.34,WSW,248,0.0,0.0,92,0.00,,,0.01,Wunderground v.1.15,2013-10-25 20:20:00,
2013-10-25 13:30:00,50.7,48.5,30.34,WNW,282,0.0,0.0,92,0.00,,,0.01,Wunderground v.1.15,2013-10-25 20:30:00,
2013-10-25 13:40:00,50.8,48.3,30.34,WNW,285,0.0,0.0,91,0.00,,,0.01,Wunderground v.1.15,2013-10-25 20:40:00,
2013-10-25 13:45:00,50.8,48.0,30.34,WNW,282,0.0,0.0,90,0.00,,,0.01,Wunderground v.1.15,2013-10-25 20:45:00,
2013-10-25 13:55:00,50.8,48.0,30.34,WNW,282,0.0,0.0,90,0.00,,,0.01,Wunderground v.1.15,2013-10-25 20:55:00,
2013-10-25 14:10:00,50.8,48.3,30.34,West,267,0.0,1.0,91,0.00,,,0.01,Wunderground v.1.15,2013-10-25 21:10:00,
2013-10-25 14:20:00,50.8,48.0,30.34,WNW,282,0.0,0.0,90,0.00,,,0.01,Wunderground v.1.15,2013-10-25 21:20:00,
2013-10-25 14:25:00,51.0,48.2,30.34,WNW,282,0.0,0.0,90,0.00,,,0.01,Wunderground v.1.15,2013-10-25 21:25:00,
2013-10-25 14:35:00,51.1,48.6,30.34,WNW,282,0.0,1.0,91,0.00,,,0.01,Wunderground v.1.15,2013-10-25 21:35:00,
2013-10-25 14:45:00,51.3,48.5,30.34,WNW,282,0.0,1.0,90,0.00,,,0.01,Wunderground v.1.15,2013-10-25 21:45:00,
2013-10-25 14:55:00,51.4,48.9,30.33,WNW,289,0.0,0.0,91,0.00,,,0.01,Wunderground v.1.15,2013-10-25 21:55:00,
2013-10-25 15:10:00,51.9,49.1,30.33,WNW,288,0.0,0.0,90,0.00,,,0.01,Wunderground v.1.15,2013-10-25 22:10:00,
2013-10-25 15:20:00,52.0,49.2,30.33,WNW,288,0.0,0.0,90,0.00,,,0.01,Wunderground v.1.15,2013-10-25 22:20:00,
2013-10-25 15:25:00,52.0,48.6,30.33,WNW,288,0.0,0.0,88,0.00,,,0.01,Wunderground v.1.15,2013-10-25 22:25:00,
2013-10-25 15:35:00,51.9,48.5,30.33,WNW,287,0.0,0.0,88,0.00,,,0.01,Wunderground v.1.15,2013-10-25 22:35:00,
2013-10-25 15:40:00,51.7,48.0,30.33,WNW,287,0.0,0.0,87,0.00,,,0.01,Wunderground v.1.15,2013-10-25 22:40:00,
2013-10-25 15:50:00,51.7,48.6,30.33,WNW,287,0.0,0.0,89,0.00,,,0.01,Wunderground v.1.15,2013-10-25 22:50:00,
2013-10-25 16:00:00,51.6,48.2,30.33,WNW,287,0.0,0.0,88,0.00,,,0.01,Wunderground v.1.15,2013-10-25 23:00:00,
2013-10-25 16:06:00,51.4,48.0,30.33,WNW,287,0.0,0.0,88,0.00,,,0.01,Wunderground v.1.15,2013-10-25 23:06:00,
2013-10-25 16:15:00,51.4,48.0,30.33,WNW,287,0.0,0.0,88,0.00,,,0.01,Wunderground v.1.15,2013-10-25 23:15:00,
2013-10-25 16:25:00,51.4,48.0,30.33,WNW,287,0.0,0.0,88,0.00,,,0.01,Wunderground v.1.15,2013-10-25 23:25:00,
2013-10-25 16:35:00,51.6,48.5,30.34,WNW,287,0.0,0.0,89,0.00,,,0.01,Wunderground v.1.15,2013-10-25 23:35:00,
2013-10-25 16:40:00,51.6,48.2,30.34,WNW,287,0.0,0.0,88,0.00,,,0.01,Wunderground v.1.15,2013-10-25 23:40:00,
2013-10-25 16:50:00,51.6,48.5,30.34,WNW,287,0.0,0.0,89,0.00,,,0.01,Wunderground v.1.15,2013-10-25 23:50:00,
2013-10-25 17:00:00,51.6,48.5,30.34,WNW,287,0.0,0.0,89,0.00,,,0.01,Wunderground v.1.15,2013-10-26 00:00:00,
2013-10-25 17:06:00,51.6,48.8,30.34,WNW,287,0.0,0.0,90,0.00,,,0.01,Wunderground v.1.15,2013-10-26 00:06:00,
2013-10-25 17:15:00,51.6,48.8,30.34,WNW,287,0.0,0.0,90,0.00,,,0.01,Wunderground v.1.15,2013-10-26 00:15:00,
2013-10-25 17:20:00,51.4,48.6,30.34,WNW,287,0.0,0.0,90,0.00,,,0.01,Wunderground v.1.15,2013-10-26 00:20:00,
2013-10-25 17:30:00,51.4,48.6,30.34,WNW,287,0.0,0.0,90,0.00,,,0.01,Wunderground v.1.15,2013-10-26 00:30:00,
2013-10-25 17:36:00,51.3,48.5,30.34,WNW,287,0.0,0.0,90,0.00,,,0.01,Wunderground v.1.15,2013-10-26 00:36:00,
2013-10-25 17:45:00,51.3,48.8,30.34,WNW,287,0.0,0.0,91,0.00,,,0.01,Wunderground v.1.15,2013-10-26 00:45:00,
2013-10-25 17:55:00,51.1,48.6,30.34,WNW,287,0.0,0.0,91,0.00,,,0.01,Wunderground v.1.15,2013-10-26 00:55:00,
2013-10-25 18:06:00,51.1,48.6,30.34,WNW,287,0.0,0.0,91,0.00,,,0.01,Wunderground v.1.15,2013-10-26 01:06:00,
2013-10-25 18:15:00,51.0,48.5,30.34,WNW,287,0.0,0.0,91,0.00,,,0.01,Wunderground v.1.15,2013-10-26 01:15:00,
2013-10-25 18:20:00,51.0,48.5,30.34,WNW,287,0.0,0.0,91,0.00,,,0.01,Wunderground v.1.15,2013-10-26 01:20:00,
2013-10-25 18:30:00,50.8,48.3,30.34,WNW,287,0.0,0.0,91,0.00,,,0.01,Wunderground v.1.15,2013-10-26 01:30:00,
2013-10-25 18:40:00,50.7,48.2,30.35,WNW,287,0.0,0.0,91,0.00,,,0.01,Wunderground v.1.15,2013-10-26 01:40:00,
2013-10-25 18:50:00,50.5,48.0,30.35,WNW,287,0.0,0.0,91,0.00,,,0.01,Wunderground v.1.15,2013-10-26 01:50:00,
2013-10-25 18:55:00,50.4,47.9,30.35,WNW,287,0.0,0.0,91,0.00,,,0.01,Wunderground v.1.15,2013-10-26 01:55:00,
2013-10-25 19:06:00,50.1,47.6,30.35,WNW,287,0.0,0.0,91,0.00,,,0.01,Wunderground v.1.15,2013-10-26 02:06:00,
2013-10-25 19:15:00,49.9,47.7,30.35,WNW,287,0.0,0.0,92,0.00,,,0.01,Wunderground v.1.15,2013-10-26 02:15:00,
2013-10-25 19:20:00,49.8,47.6,30.35,WNW,287,0.0,0.0,92,0.00,,,0.01,Wunderground v.1.15,2013-10-26 02:20:00,
2013-10-25 19:30:00,49.6,47.4,30.35,WNW,287,0.0,0.0,92,0.00,,,0.01,Wunderground v.1.15,2013-10-26 02:30:00,
2013-10-25 19:40:00,49.4,47.2,30.35,WNW,287,0.0,0.0,92,0.00,,,0.01,Wunderground v.1.15,2013-10-26 02:40:00,
2013-10-25 19:50:00,48.9,46.7,30.36,WNW,287,0.0,0.0,92,0.00,,,0.01,Wunderground v.1.15,2013-10-26 02:50:00,
2013-10-25 19:55:00,48.6,46.1,30.36,WNW,287,0.0,0.0,91,0.00,,,0.01,Wunderground v.1.15,2013-10-26 02:55:00,
2013-10-25 20:06:00,48.2,45.7,30.36,WNW,287,0.0,0.0,91,0.00,,,0.01,Wunderground v.1.15,2013-10-26 03:06:00,
2013-10-25 20:15:00,47.7,45.2,30.36,WNW,287,0.0,0.0,91,0.00,,,0.01,Wunderground v.1.15,2013-10-26 03:15:00,
2013-10-25 20:20:00,47.4,44.9,30.36,WNW,287,0.0,0.0,91,0.00,,,0.01,Wunderground v.1.15,2013-10-26 03:20:00,
2013-10-25 20:30:00,47.0,44.8,30.36,WNW,287,0.0,0.0,92,0.00,,,0.01,Wunderground v.1.15,2013-10-26 03:30:00,
2013-10-25 20:40:00,46.5,44.3,30.36,WNW,287,0.0,0.0,92,0.00,,,0.01,Wunderground v.1.15,2013-10-26 03:40:00,
2013-10-25 20:50:00,46.1,43.9,30.36,WNW,287,0.0,0.0,92,0.00,,,0.01,Wunderground v.1.15,2013-10-26 03:50:00,
2013-10-25 20:55:00,46.0,44.1,30.36,WNW,287,0.0,0.0,93,0.00,,,0.01,Wunderground v.1.15,2013-10-26 03:55:00,
2013-10-25 21:06:00,45.5,43.6,30.37,WNW,287,0.0,0.0,93,0.00,,,0.01,Wunderground v.1.15,2013-10-26 04:06:00,
2013-10-25 21:10:00,45.4,43.5,30.37,WNW,287,0.0,0.0,93,0.00,,,0.01,Wunderground v.1.15,2013-10-26 04:10:00,
2013-10-25 21:15:00,45.2,43.3,30.37,WNW,287,0.0,0.0,93,0.00,,,0.01,Wunderground v.1.15,2013-10-26 04:15:00,
2013-10-25 21:20:00,45.1,43.2,30.37,WNW,287,0.0,0.0,93,0.00,,,0.01,Wunderground v.1.15,2013-10-26 04:20:00,
2013-10-25 21:30:00,44.9,43.0,30.37,WNW,287,0.0,0.0,93,0.00,,,0.01,Wunderground v.1.15,2013-10-26 04:30:00,
2013-10-25 21:35:00,44.8,42.9,30.37,WNW,287,0.0,0.0,93,0.00,,,0.01,Wunderground v.1.15,2013-10-26 04:35:00,
2013-10-25 21:45:00,44.5,42.6,30.37,WNW,287,0.0,0.0,93,0.00,,,0.01,Wunderground v.1.15,2013-10-26 04:45:00,
2013-10-25 21:50:00,44.3,42.4,30.37,WNW,287,0.0,0.0,93,0.00,,,0.01,Wunderground v.1.15,2013-10-26 04:50:00,
2013-10-25 22:00:00,44.1,42.5,30.37,WNW,287,0.0,0.0,94,0.00,,,0.01,Wunderground v.1.15,2013-10-26 05:00:00,
2013-10-25 22:06:00,43.9,42.3,30.37,WNW,287,0.0,0.0,94,0.00,,,0.01,Wunderground v.1.15,2013-10-26 05:06:00,
2013-10-25 22:15:00,43.8,42.2,30.37,WNW,287,0.0,0.0,94,0.00,,,0.01,Wunderground v.1.15,2013-10-26 05:15:00,
2013-10-25 22:25:00,43.6,42.0,30.37,WNW,287,0.0,0.0,94,0.00,,,0.01,Wunderground v.1.15,2013-10-26 05:25:00,
2013-10-25 22:35:00,43.5,41.9,30.38,WNW,287,0.0,0.0,94,0.00,,,0.01,Wunderground v.1.15,2013-10-26 05:35:00,
2013-10-25 22:45:00,43.5,42.2,30.38,WNW,287,0.0,0.0,95,0.00,,,0.01,Wunderground v.1.15,2013-10-26 05:45:00,
2013-10-25 22:55:00,43.3,42.0,30.38,WNW,287,0.0,0.0,95,0.00,,,0.01,Wunderground v.1.15,2013-10-26 05:55:00,
2013-10-25 23:06:00,43.2,41.9,30.38,WNW,287,0.0,0.0,95,0.00,,,0.01,Wunderground v.1.15,2013-10-26 06:06:00,
2013-10-25 23:15:00,43.3,42.2,30.38,WNW,287,0.0,0.0,96,0.00,,,0.01,Wunderground v.1.15,2013-10-26 06:15:00,
2013-10-25 23:20:00,43.3,42.5,30.38,WNW,287,0.0,0.0,97,0.00,,,0.01,Wunderground v.1.15,2013-10-26 06:20:00,
2013-10-25 23:30:00,43.5,42.7,30.38,WNW,287,0.0,0.0,97,0.00,,,0.01,Wunderground v.1.15,2013-10-26 06:30:00,
2013-10-25 23:35:00,43.6,42.8,30.38,WNW,287,0.0,0.0,97,0.00,,,0.01,Wunderground v.1.15,2013-10-26 06:35:00,
2013-10-25 23:45:00,43.9,43.1,30.38,WNW,287,0.0,0.0,97,0.00,,,0.01,Wunderground v.1.15,2013-10-26 06:45:00,
2013-10-25 23:50:00,44.1,43.6,30.38,WNW,287,0.0,0.0,98,0.00,,,0.01,Wunderground v.1.15,2013-10-26 06:50:00,